Location: *
(43.9905°S, 176.4941°W)
Time: 13:33:54
(UTC+00:00)

Cosmos 2228 - Pass Details

Date: 08 December 2019
Orbit: 589 x 618 km, 82.5° (Epoch: 28 January)

Event Time Altitude Azimuth Distance (km) Brightness Sun altitude
Exits shadow 10:42:24 43° 80° (E) 877 3.6 -22.1°
Maximum altitude 10:42:36 44° 88° (E) 873 3.6 -22.1°
Drops below altitude 10° 10:46:48 10° 159° (SSE) 2,003 6.4 -22.3°
Sets 10:49:07 0° 165° (SSE) 2,912 7.6 -22.4°
